204P/LINEAR-NEAT (2001)

Japanese version
Home page
Total 6,336 html files since Dec. 4, 1995
Updated on September 15, 2008

---------------------------------------------------------------------

* Profile

Designation 204P/2001 TU80
Discovery Date October 13 and November 16, 2001
Magnitude 17.9 mag
Discoverer Lincoln Laboratory Near-Earth Asteroid Research project, Near-Earth-Asteroid Tracking Team (Jet Propulsion Laboratory)

* Orbital Elements

Epoch 2001 Nov. 27.0 TT = JDT 2452240.5
T 2001 Dec. 10.03633 TT                                 MPC
q   1.9325186            (2000.0)            P               Q
n   0.14075415     Peri.  355.15172     -0.24675025     -0.96299813
a   3.6601193      Node   109.10241     +0.89292462     -0.26939574
e   0.4720067      Incl.    6.58683     +0.37656333     +0.00778105
P   7.00

* Finding Charts

* Magnitudes Graph

        m1 = 14.0 + 5 log d + 10.0 log r  [  ,27]  (2002 Jan.  6 -             )
        m1 =  7.8 + 5 log d + 25.0 log r  [27,  ]  (             - 2002 Jan.  6)

---------------------------------------------------------------------

The orbital elements are published on M.P.E.C. 2008-R54.
The charts are made with StellaNavigator Ver.2.0 for Windows (AstroArts / ASCII).
The magnitudes graphs are made with Comet for Windows.

---------------------------------------------------------------------

Copyright(C) 1995-2008 Seiichi Yoshida (comet@aerith.net). All rights reserved.